Theta_e
313 315 317 310 309 309 316 322 322 324 324 326 326 327 327 322 322 317 314 313 316 323 331 334 336 337 337 338 338 337 337 336 335 336 335 334 333 333 333 333 332 332 332 332
309 314 312 311 308 309 310 311 314 318 320 326 327 328 325 323 323 321 317 315 312 313 323 331 334 336 336 337 337 337 337 337 336 335 336 335 334 334 333 333 333 334 333 333
309 310 311 313 312 310 310 311 312 317 314 313 317 321 325 323 320 322 320 317 313 315 315 326 332 334 335 336 337 337 337 337 336 336 335 337 336 336 334 334 334 335 334 334
310 308 309 314 314 313 311 311 311 314 319 323 316 328 318 323 323 322 323 321 314 313 314 316 327 331 334 336 337 337 337 337 337 337 336 337 337 336 335 334 335 335 335 335
308 309 308 311 315 313 312 310 311 316 316 316 315 320 319 317 319 320 322 322 315 310 306 304 305 308 312 323 330 334 337 337 337 337 338 337 337 337 336 335 335 335 335 336
305 305 306 309 309 312 310 309 310 314 315 315 315 319 317 319 318 318 319 321 308 306 305 304 306 306 307 307 310 314 319 320 321 324 333 336 338 337 336 335 336 336 336 336
303 305 306 307 311 313 312 309 311 317 317 316 314 316 316 314 308 313 310 312 311 310 307 307 307 308 309 309 308 307 309 311 311 313 315 316 322 334 336 337 336 336 336 336
300 300 307 308 312 313 314 309 311 312 316 313 314 316 314 313 308 304 305 308 308 309 309 308 308 308 309 309 309 308 308 308 308 308 308 310 312 314 321 331 335 334 334 334
306 305 309 309 309 312 313 311 308 307 304 312 313 310 310 307 305 306 309 309 310 310 309 308 308 308 309 309 309 309 309 309 309 309 308 310 312 314 318 321 326 327 328 329
303 306 307 308 310 312 312 310 309 308 304 307 309 308 309 305 307 309 310 310 310 309 308 307 307 307 307 307 307 307 308 308 308 308 309 309 309 310 312 315 318 321 324 324
303 305 309 307 314 313 315 313 309 308 305 308 310 307 306 304 308 308 308 307 306 307 306 306 306 306 305 305 304 304 304 304 304 305 306 307 308 309 310 310 311 314 316 318
303 300 307 309 307 306 309 312 308 311 307 303 307 307 304 305 307 307 307 306 304 304 303 303 303 302 302 302 301 301 301 301 301 302 302 303 304 305 306 307 308 308 309 310
303 304 298 304 310 306 311 311 308 308 305 306 304 307 304 305 304 304 305 304 303 302 301 300 300 299 298 297 297 297 297 297 298 300 300 300 300 301 301 301 302 303 305 306
303 304 301 305 304 305 306 309 311 309 306 307 305 305 305 305 305 303 303 302 301 300 299 298 297 296 296 295 295 295 295 295 296 297 297 297 297 298 298 299 299 300 300 301
303 301 303 304 304 306 306 306 312 311 309 307 306 307 305 304 303 302 301 300 300 299 298 296 296 295 294 294 294 293 293 294 294 295 295 294 295 295 296 296 297 297 297 297
300 302 301 298 301 303 306 306 310 310 309 309 305 306 303 300 299 300 300 299 299 298 297 296 295 294 294 293 292 291 291 291 292 293 292 292 293 293 293 294 294 295 295 295
299 301 299 299 299 301 299 302 306 308 309 309 309 307 301 299 302 300 299 298 297 297 296 295 294 293 293 292 292 291 291 291 291 291 291 291 291 291 291 292 292 292 293 293
296 297 293 295 294 299 300 297 300 305 307 307 308 308 304 302 300 298 297 297 297 297 296 295 294 293 292 292 291 291 291 290 290 290 290 290 290 291 291 291 291 291 291 291
295 295 290 293 287 293 296 296 297 299 300 301 302 300 300 298 298 298 296 296 295 295 294 294 292 291 290 289 288 288 288 288 288 287 287 287 287 287 288 288 289 289 289 290
295 295 291 282 289 290 293 296 297 296 296 298 298 298 297 296 298 297 295 294 294 294 293 292 291 290 289 288 287 287 286 286 285 284 284 284 284 284 285 285 286 286 287 287
280 278 283 280 282 288 292 296 296 292 295 298 297 296 296 296 295 296 294 294 294 293 292 291 289 288 287 286 286 285 284 284 283 282 282 282 283 283 283 283 284 284 285 285
289 284 282 278 283 289 292 294 294 295 295 294 294 294 294 294 294 294 294 293 292 292 291 290 289 287 286 285 284 284 283 282 282 281 281 281 281 282 282 282 283 283 283 283
290 293 291 292 292 291 292 294 292 294 294 294 293 293 293 294 294 293 292 291 292 291 290 289 287 286 285 284 283 282 282 281 281 280 281 281 280 280 281 280 280 280 281 281
290 291 290 291 292 293 293 292 293 295 294 293 292 291 291 292 291 291 291 290 290 290 289 287 286 284 283 283 282 281 281 280 280 280 280 279 279 280 280 279 279 279 279 280
291 289 289 290 292 292 292 290 291 291 292 292 291 290 290 290 290 290 289 289 289 289 287 285 284 283 282 281 281 280 280 279 279 278 278 278 278 278 278 278 278 278 279 279
290 292 293 292 291 291 292 291 289 290 290 290 289 290 289 289 289 289 288 289 288 287 285 284 283 281 281 280 280 280 279 278 278 278 277 277 276 276 275 276 277 277 277 278
Wind_Speed
7 8 15 16 13 9 2 6 12 8 9 8 19 15 17 8 14 9 9 7 4 8 16 28 33 36 32 34 32 34 35 37 35 32 28 28 28 28 27 27 27 28 28 27
6 19 15 10 11 11 14 8 5 2 2 9 9 16 17 11 13 16 7 8 8 7 3 16 27 35 34 34 34 33 34 37 35 36 34 30 30 27 27 26 29 30 30 30
17 9 16 13 12 14 16 18 8 2 2 2 5 5 7 7 7 17 12 7 7 4 5 2 15 29 32 34 35 35 32 32 32 29 33 24 25 27 25 26 29 30 30 31
11 16 17 15 17 14 15 7 6 6 5 6 2 5 8 15 15 17 21 15 7 8 4 3 4 4 18 27 28 33 32 32 32 28 29 31 24 25 27 25 28 31 32 33
4 9 16 19 9 12 10 8 10 6 3 2 2 1 5 11 17 19 21 20 9 4 8 9 11 17 15 7 6 13 22 23 26 30 32 32 33 32 29 31 32 31 34 32
13 2 6 5 16 15 7 5 5 4 4 3 8 7 3 8 13 16 15 19 12 12 7 8 18 18 17 13 10 7 6 4 4 7 18 26 34 33 30 27 26 28 28 31
5 10 5 6 4 17 13 8 3 4 4 10 13 3 9 3 9 8 8 9 13 15 11 7 8 14 15 14 9 6 3 4 7 9 11 10 11 17 27 31 30 30 29 30
5 7 14 13 8 7 12 14 4 8 9 3 11 8 5 15 5 8 10 13 12 11 9 8 10 14 13 13 12 9 6 4 6 8 10 12 11 13 13 17 20 28 29 30
3 5 2 7 9 11 10 17 9 5 3 4 5 5 7 3 9 9 10 12 11 10 10 10 12 15 13 14 14 12 10 9 7 6 6 7 8 9 10 13 15 21 22 22
1 6 2 3 6 14 7 14 9 1 7 4 4 4 5 7 12 12 12 14 11 10 11 9 11 15 15 12 14 13 12 12 11 10 9 7 6 8 11 14 14 15 22 24
2 2 2 1 6 9 13 11 9 5 5 6 4 4 1 6 13 14 13 12 9 8 9 7 10 16 16 15 16 15 15 14 13 11 12 11 11 10 8 7 8 10 13 17
3 2 4 6 6 10 6 13 26 9 7 2 3 3 12 12 14 17 14 12 7 8 8 8 13 17 19 20 19 18 18 16 14 13 13 13 13 13 12 11 10 10 11 10
1 0 4 6 3 2 4 7 18 7 4 4 5 2 5 15 13 10 13 9 10 10 9 7 11 13 16 17 17 17 17 16 15 13 12 12 13 13 14 13 13 12 13 13
3 2 4 2 3 4 6 10 6 17 5 7 5 10 4 6 11 9 9 9 10 8 8 7 7 10 13 15 15 16 16 16 16 15 14 15 15 14 14 15 14 14 15 15
3 3 0 1 4 3 4 5 5 10 5 13 16 18 11 9 9 7 8 10 10 8 7 6 6 7 11 13 14 15 17 18 17 16 15 16 15 15 14 14 15 15 15 16
8 2 2 2 3 4 4 8 6 6 6 6 14 12 6 6 9 8 10 10 9 7 7 6 6 8 10 12 12 13 15 15 14 15 16 17 18 17 17 18 19 19 18 18
5 5 4 2 5 4 4 3 4 5 5 7 16 10 5 8 11 10 8 9 8 7 6 6 5 7 8 10 12 17 18 17 19 18 20 22 23 22 21 20 19 19 19 19
4 4 2 2 5 3 3 3 3 6 7 3 11 7 6 8 6 8 7 8 7 6 5 5 6 5 6 7 9 12 14 14 15 15 19 20 21 22 22 22 23 23 23 23
1 1 2 2 1 4 3 1 2 1 3 9 11 10 11 9 6 4 5 5 6 6 8 8 6 4 1 2 7 9 8 9 9 11 15 17 19 21 23 24 25 25 25 27
3 1 3 3 4 4 4 3 1 1 1 2 10 12 11 7 4 4 5 6 7 9 8 5 3 3 3 5 7 8 8 9 8 12 16 17 19 20 21 21 23 24 24 26
3 3 4 2 1 6 6 5 1 5 5 2 6 9 7 4 3 6 7 6 9 8 7 4 2 4 4 8 8 9 10 11 11 16 17 19 18 18 18 20 21 22 23 25
5 4 3 2 3 6 5 2 5 4 2 5 6 6 8 7 7 6 6 6 7 5 4 2 5 7 8 8 10 12 14 14 16 19 19 20 19 19 18 18 20 21 21 22
2 5 4 7 5 5 6 2 4 3 5 4 7 5 7 4 4 5 5 5 3 1 1 4 7 8 8 9 11 14 15 17 20 22 22 21 20 19 17 18 22 24 23 23
4 5 3 3 6 8 6 3 3 4 5 5 5 7 7 6 6 6 5 4 4 4 5 5 6 8 10 11 11 12 15 19 20 22 22 22 21 22 21 21 19 20 21 22
5 4 6 5 7 5 9 8 9 8 6 6 5 7 9 8 7 7 6 6 8 7 7 6 6 9 12 12 13 14 17 18 19 21 22 22 22 23 25 24 21 19 21 17
7 7 9 7 8 7 4 5 9 8 10 10 9 5 6 10 8 7 7 11 11 11 10 10 10 11 12 13 17 16 15 15 17 21 22 23 24 24 24 24 28 19 15 17
Wind_Direction
211 211 211 207 221 253 198 178 204 202 227 173 218 221 228 231 294 304 310 297 235 226 206 190 193 196 199 202 204 207 206 206 206 208 209 213 216 221 225 227 230 232 232 233
249 231 212 193 209 225 249 249 235 200 256 204 208 226 219 192 207 245 278 313 316 310 239 190 183 188 193 198 202 203 209 208 211 213 212 214 215 224 231 233 235 234 236 235
220 245 203 218 212 207 222 235 223 210 178 61 106 266 218 217 208 233 239 249 282 260 5 204 186 186 192 195 198 202 206 211 216 219 215 221 226 225 229 233 235 234 237 238
237 238 240 222 220 213 225 202 204 174 171 206 195 258 214 215 222 222 234 231 231 290 257 71 79 112 187 196 202 205 210 215 217 213 207 211 216 222 227 230 235 236 236 236
230 211 228 223 243 220 221 186 198 157 120 120 244 179 269 194 214 220 225 228 193 65 57 73 65 77 75 100 175 201 206 206 210 212 213 214 218 225 229 233 240 246 242 239
254 131 309 321 217 234 249 167 158 118 112 253 183 184 233 197 215 212 214 222 123 94 63 60 72 70 62 60 66 94 138 157 188 181 216 224 224 229 230 230 236 243 244 242
257 215 205 213 275 199 226 173 141 164 189 234 152 180 233 271 308 193 172 178 155 151 122 86 59 59 54 43 32 19 341 306 292 273 261 257 251 245 240 239 236 238 244 246
183 274 168 169 230 210 209 197 175 169 192 155 142 221 236 218 132 72 77 86 86 94 97 86 84 78 72 64 50 51 38 356 314 294 289 279 279 270 267 264 254 258 260 263
295 270 62 191 189 190 191 217 204 109 36 109 193 257 312 126 124 113 104 97 95 99 97 98 95 93 89 90 77 65 61 53 33 2 319 287 293 287 286 278 275 269 267 269
168 291 266 316 196 209 209 203 212 113 143 186 206 198 194 150 139 132 120 112 109 108 103 99 95 89 84 74 74 73 70 61 44 35 28 14 341 300 291 289 288 281 264 266
227 228 267 343 200 192 200 212 234 180 155 171 138 230 151 184 146 128 123 114 122 117 102 99 91 93 89 83 69 65 52 46 49 40 32 24 16 11 2 346 328 308 295 290
229 221 278 259 195 179 258 214 200 205 211 229 132 298 325 139 130 125 119 118 109 94 87 83 83 76 72 72 65 60 53 44 33 31 31 29 21 10 8 2 355 340 330 316
309 120 314 339 144 10 306 206 194 204 111 211 118 217 4 105 108 118 122 114 104 101 85 81 73 65 66 63 62 59 51 42 34 29 25 19 18 10 359 354 350 346 338 333
276 224 185 352 240 286 311 278 171 203 174 196 161 135 136 102 119 123 116 104 98 96 95 89 73 70 65 59 55 51 43 37 37 32 26 18 10 2 350 342 338 335 333 329
317 176 247 0 288 269 268 328 158 205 217 189 159 146 160 142 132 132 113 108 103 101 95 94 87 69 58 53 48 40 35 31 29 28 25 22 12 6 356 346 342 336 329 322
328 49 56 289 315 274 314 351 61 92 100 58 126 117 143 122 101 106 120 119 120 125 118 107 89 64 44 36 33 25 23 23 20 24 21 12 7 5 359 353 352 346 338 330
341 346 6 250 337 7 10 309 15 64 79 134 139 142 134 115 124 135 129 126 131 129 120 101 84 60 34 22 13 11 6 6 10 11 7 3 1 358 356 351 348 345 339 333
314 342 39 292 4 72 240 260 154 115 134 145 113 129 111 121 111 121 124 125 123 120 101 69 52 25 8 2 358 356 358 1 0 360 356 354 350 346 343 341 342 341 337 334
64 11 2 107 190 282 337 25 82 136 151 168 133 128 131 128 97 49 129 130 152 149 147 149 154 152 110 20 357 353 354 354 353 346 343 341 340 336 337 338 337 335 332 328
349 63 129 38 106 204 241 270 324 15 317 149 133 142 146 152 144 220 172 139 140 141 137 129 97 43 25 6 349 345 345 344 339 339 336 336 337 336 334 333 331 329 328 324
5 356 152 155 186 283 252 229 68 91 242 118 128 146 138 128 194 151 160 150 152 146 135 123 49 38 9 344 339 340 342 346 337 335 334 336 337 335 334 331 330 330 329 326
176 134 223 81 62 280 204 26 163 201 37 109 106 119 120 141 134 152 176 171 160 151 145 8 356 356 354 352 343 343 345 337 331 331 333 335 337 337 337 334 332 329 327 325
246 190 185 183 216 236 215 170 232 133 136 166 127 154 144 149 190 192 215 220 218 161 355 333 336 334 340 342 342 335 334 331 328 328 331 333 335 338 338 331 329 326 328 327
256 192 200 77 251 227 231 244 233 172 182 193 176 165 163 188 215 228 235 213 207 261 285 296 309 316 319 332 332 328 326 324 323 323 326 331 332 332 331 331 328 322 319 319
199 133 183 263 271 321 268 219 210 206 183 170 178 182 196 194 207 206 213 207 225 228 250 261 281 292 305 320 322 325 324 321 318 319 321 323 326 327 326 328 328 321 318 318
183 192 191 211 203 174 207 193 188 192 198 195 177 196 211 201 205 193 209 214 215 221 225 236 252 274 295 307 314 322 319 314 314 312 315 321 323 323 323 324 322 320 301 302